EW7082 Weather Reports


Display with metric or nautical units.
time (UTC)temp
F
wind
direction
speed
MPH
gust
MPH
rain 1hr
in
rain 24hr
in
rain mn
in
humidity
%
barometer
mb
20260831014205 63 276 4.0 8.0 0.00 0.00 0.00 80 1019.0
20260831013703 63 299 3.0 8.0 0.00 0.00 0.00 80 1019.1
20260831013204 64 285 4.0 7.0 0.00 0.00 0.00 79 1019.1
20260831012704 64 286 3.0 7.0 0.00 0.00 0.00 80 1019.1
20260831012204 64 292 3.0 5.0 0.00 0.00 0.00 80 1019.1
20260831011705 64 319 3.0 5.0 0.00 0.00 0.00 80 1019.2
20260831011204 64 315 2.0 3.0 0.00 0.00 0.00 80 1019.2
20260831010205 64 313 1.0 3.0 0.00 0.00 0.00 79 1019.1
20260831005705 64 284 1.0 3.0 0.00 0.00 0.00 79 1019.2
20260831005205 63 260 3.0 5.0 0.00 0.00 0.00 80 1019.2
20260831004704 63 278 3.0 7.0 0.00 0.00 0.00 79 1019.3
20260831004205 63 285 4.0 7.0 0.00 0.00 0.00 79 1019.3
20260831003704 63 265 3.0 7.0 0.00 0.00 0.00 79 1019.5
20260831003204 63 279 3.0 8.0 0.00 0.00 0.00 79 1019.5
20260831002704 64 279 7.0 10.0 0.00 0.00 0.00 78 1019.5
20260831002203 64 251 6.0 9.0 0.00 0.00 0.00 78 1019.5
20260831001705 64 285 4.0 9.0 0.00 0.00 0.00 78 1019.5
20260830235704 65 295 8.0 10.0 0.00 0.00 0.00 76 1019.6
20260830234705 65 286 5.0 12.0 0.00 0.00 0.00 74 1019.6
20260830234204 65 305 4.0 8.0 0.00 0.00 0.00 74 1019.7
20260830233706 65 299 5.0 8.0 0.00 0.00 0.00 74 1019.7
20260830233206 65 303 6.0 12.0 0.00 0.00 0.00 74 1019.8
20260830232204 66 294 7.0 10.0 0.00 0.00 0.00 72 1019.8
20260830231705 66 297 6.0 12.0 0.00 0.00 0.00 73 1019.8
20260830231203 66 285 7.0 12.0 0.00 0.00 0.00 72 1019.8
20260830230703 66 276 7.0 12.0 0.00 0.00 0.00 71 1019.8
20260830230205 66 294 5.0 12.0 0.00 0.00 0.00 72 1019.8
20260830225704 66 281 7.0 12.0 0.00 0.00 0.00 71 1019.8
20260830224704 66 269 6.0 10.0 0.00 0.00 0.00 69 1019.9
20260830223705 66 286 3.0 8.0 0.00 0.00 0.00 69 1019.9
20260830223204 66 317 5.0 9.0 0.00 0.00 0.00 69 1019.9
20260830222704 66 277 4.0 6.0 0.00 0.00 0.00 69 1020.0
20260830222204 66 280 4.0 7.0 0.00 0.00 0.00 69 1019.9
20260830221704 66 309 3.0 8.0 0.00 0.00 0.00 69 1020.0
20260830221204 66 284 4.0 8.0 0.00 0.00 0.00 70 1020.0
20260830220704 66 279 6.0 9.0 0.00 0.00 0.00 70 1020.1
20260830220204 66 287 6.0 12.0 0.00 0.00 0.00 71 1020.1
20260830215705 66 301 3.0 8.0 0.00 0.00 0.00 72 1020.2
20260830215204 66 307 6.0 9.0 0.00 0.00 0.00 71 1020.3
20260830214706 66 304 7.0 12.0 0.00 0.00 0.00 72 1020.3
20260830214203 66 265 7.0 12.0 0.00 0.00 0.00 72 1020.3
20260830213704 66 305 7.0 12.0 0.00 0.00 0.00 71 1020.4
20260830213204 66 280 8.0 12.0 0.00 0.00 0.00 70 1020.3
20260830212704 67 266 7.0 10.0 0.00 0.00 0.00 69 1020.3
20260830212204 67 280 4.0 8.0 0.00 0.00 0.00 68 1020.3
20260830211704 67 315 5.0 12.0 0.00 0.00 0.00 68 1020.3
20260830211204 68 358 6.0 9.0 0.00 0.00 0.00 67 1020.2
20260830210704 68 347 7.0 12.0 0.00 0.00 0.00 68 1020.2
20260830205704 67 309 5.0 8.0 0.00 0.00 0.00 68 1020.2
20260830205207 67 22 3.0 7.0 0.00 0.00 0.00 68 1020.2
20260830204705 67 332 5.0 8.0 0.00 0.00 0.00 69 1020.2
20260830204204 67 10 4.0 9.0 0.00 0.00 0.00 69 1020.2
20260830203205 66 9 6.0 10.0 0.00 0.00 0.00 70 1020.2
20260830202704 66 44 5.0 9.0 0.00 0.00 0.00 69 1020.2
20260830202204 66 352 2.0 9.0 0.00 0.00 0.00 69 1020.2
20260830201705 67 334 4.0 9.0 0.00 0.00 0.00 69 1020.2
20260830201205 67 48 4.0 9.0 0.00 0.00 0.00 70 1020.1
20260830200707 67 63 5.0 10.0 0.00 0.00 0.00 70 1020.2
20260830200206 66 46 3.0 9.0 0.00 0.00 0.00 69 1020.2
20260830195207 66 356 5.0 9.0 0.00 0.00 0.00 70 1020.2
20260830194709 66 20 4.0 8.0 0.00 0.00 0.00 69 1020.2
20260830192204 66 6 2.0 7.0 0.00 0.00 0.00 70 1020.2
20260830191705 66 28 5.0 9.0 0.00 0.00 0.00 72 1020.2
20260830191205 66 47 5.0 7.0 0.00 0.00 0.00 72 1020.3
20260830190704 66 65 2.0 7.0 0.00 0.00 0.00 72 1020.3
20260830190204 65 64 3.0 8.0 0.00 0.00 0.00 75 1020.3
20260830185705 64 52 4.0 8.0 0.00 0.00 0.00 75 1020.4
20260830185205 64 43 3.0 5.0 0.00 0.00 0.00 76 1020.5
20260830183705 64 66 5.0 10.0 0.00 0.00 0.00 74 1020.4
20260830183206 65 84 5.0 9.0 0.00 0.00 0.00 74 1020.4
20260830182704 65 60 3.0 9.0 0.00 0.00 0.00 72 1020.4
20260830182204 65 60 5.0 8.0 0.00 0.00 0.00 72 1020.5
20260830181705 65 60 5.0 8.0 0.00 0.00 0.00 71 1020.5
20260830181207 65 61 5.0 9.0 0.00 0.00 0.00 71 1020.5
20260830180704 65 354 3.0 8.0 0.00 0.00 0.00 74 1020.5
20260830180204 64 49 3.0 8.0 0.00 0.00 0.00 74 1020.5
20260830175212 64 72 5.0 8.0 0.00 0.00 0.00 75 1020.5
20260830174705 64 47 5.0 8.0 0.00 0.00 0.00 74 1020.5
20260830174205 65 78 6.0 8.0 0.00 0.00 0.00 73 1020.5
20260830173705 65 61 6.0 10.0 0.00 0.00 0.00 74 1020.4
20260830173220 65 39 5.0 10.0 0.00 0.00 0.00 74 1020.4
20260830172706 65 46 5.0 9.0 0.00 0.00 0.00 74 1020.3
20260830172224 64 36 3.0 9.0 0.00 0.00 0.00 75 1020.3
20260830171709 64 36 3.0 6.0 0.00 0.00 0.00 75 1020.3
20260830171211 64 63 4.0 8.0 0.00 0.00 0.00 75 1020.4
20260830170204 63 41 4.0 8.0 0.00 0.00 0.00 75 1020.3
20260830165705 63 45 4.0 7.0 0.00 0.00 0.00 76 1020.3
20260830165203 63 40 3.0 7.0 0.00 0.00 0.00 75 1020.3
20260830164704 64 40 3.0 8.0 0.00 0.00 0.00 75 1020.4
20260830164205 64 55 3.0 6.0 0.00 0.00 0.00 75 1020.4
20260830163705 64 41 4.0 5.0 0.00 0.00 0.00 75 1020.5
20260830163204 64 44 5.0 6.0 0.00 0.00 0.00 75 1020.4
20260830162704 63 65 3.0 5.0 0.00 0.00 0.00 77 1020.5
20260830162204 63 59 1.0 5.0 0.00 0.00 0.00 78 1020.5
20260830161704 62 33 3.0 3.0 0.00 0.00 0.00 79 1020.5
20260830160205 62 54 3.0 5.0 0.00 0.00 0.00 78 1020.4
20260830155705 62 35 3.0 3.0 0.00 0.00 0.00 79 1020.4
20260830154705 61 90 2.0 3.0 0.00 0.00 0.00 83 1020.4
20260830154205 60 90 1.0 5.0 0.00 0.00 0.00 84 1020.3
20260830153704 59 96 1.0 3.0 0.00 0.00 0.00 84 1020.4
20260830153205 59 86 1.0 2.0 0.00 0.00 0.00 85 1020.4
20260830151704 58 125 1.0 3.0 0.00 0.00 0.00 86 1020.4
20260830151203 57 154 2.0 3.0 0.00 0.00 0.00 86 1020.5
20260830150703 57 153 0.0 2.0 0.00 0.00 0.00 87 1020.4
20260830150206 57 146 1.0 3.0 0.00 0.00 0.00 87 1020.4
20260830145705 56 143 1.0 3.0 0.00 0.00 0.00 87 1020.3
20260830145204 56 178 2.0 3.0 0.00 0.00 0.00 87 1020.3
20260830144705 56 196 1.0 2.0 0.00 0.00 0.00 88 1020.3
20260830144204 56 178 0.0 2.0 0.00 0.00 0.00 88 1020.2
20260830143705 55 178 1.0 3.0 0.00 0.00 0.00 89 1020.2
20260830143205 55 179 1.0 3.0 0.00 0.00 0.00 89 1020.2
20260830142704 55 195 2.0 5.0 0.00 0.00 0.00 91 1020.2
20260830141704 54 160 0.0 0.0 0.00 0.00 0.00 91 1020.2
20260830140704 54 161 1.0 2.0 0.00 0.00 0.00 92 1020.1
20260830140206 53 172 1.0 2.0 0.00 0.00 0.00 92 1020.1
20260830135703 53 248 0.0 0.0 0.00 0.00 0.00 92 1020.1
20260830135204 53 248 0.0 0.0 0.00 0.00 0.00 91 1020.1
20260830134706 53 248 0.0 0.0 0.00 0.00 0.00 91 1020.1
20260830134204 53 248 0.0 0.0 0.00 0.00 0.00 92 1020.0
20260830133705 53 248 0.0 0.0 0.00 0.00 0.00 91 1020.0
20260830133205 53 248 0.0 0.0 0.00 0.00 0.00 92 1020.0
20260830132704 53 248 1.0 2.0 0.00 0.00 0.00 91 1019.9
20260830132203 53 248 1.0 2.0 0.00 0.00 0.00 91 1019.8
20260830131704 53 248 0.0 0.0 0.00 0.00 0.00 91 1019.8
20260830131205 53 248 0.0 0.0 0.00 0.00 0.00 91 1019.8
20260830130704 53 248 0.0 0.0 0.00 0.00 0.00 90 1019.8
20260830130205 53 248 0.0 2.0 0.00 0.00 0.00 90 1019.8
20260830125705 54 248 0.0 0.0 0.00 0.00 0.00 90 1019.8
20260830125203 54 248 0.0 0.0 0.00 0.00 0.00 90 1019.8
20260830124705 54 248 0.0 0.0 0.00 0.00 0.00 90 1019.8
20260830124204 55 248 0.0 0.0 0.00 0.00 0.00 89 1019.8
20260830123705 55 248 0.0 0.0 0.00 0.00 0.00 90 1019.9
20260830122704 55 248 0.0 0.0 0.00 0.00 0.00 90 1019.9
20260830122205 55 248 0.0 0.0 0.00 0.00 0.00 90 1019.9
20260830121705 55 248 0.0 0.0 0.00 0.00 0.00 90 1019.9
20260830121205 55 248 0.0 0.0 0.00 0.00 0.00 90 1020.0
20260830120705 55 248 0.0 0.0 0.00 0.00 0.00 90 1020.1
20260830115704 55 248 0.0 0.0 0.00 0.00 0.00 90 1020.2
20260830115204 55 248 0.0 0.0 0.00 0.00 0.00 90 1020.2
20260830114705 55 248 1.0 2.0 0.00 0.00 0.00 90 1020.2
20260830114204 55 248 0.0 1.0 0.00 0.00 0.00 90 1020.1
20260830113704 55 248 1.0 2.0 0.00 0.00 0.00 90 1020.1
20260830113206 55 248 2.0 3.0 0.00 0.00 0.00 90 1020.1
20260830111204 54 191 1.0 2.0 0.00 0.00 0.00 91 1020.2
20260830110704 54 266 0.0 0.0 0.00 0.00 0.00 91 1020.1
20260830110205 54 266 0.0 0.0 0.00 0.00 0.00 91 1020.1
20260830105705 54 266 1.0 1.0 0.00 0.00 0.00 91 1020.0
20260830104704 54 269 1.0 3.0 0.00 0.00 0.00 91 1020.0
20260830104203 54 263 1.0 2.0 0.00 0.00 0.00 90 1019.9
20260830103703 54 263 1.0 2.0 0.00 0.00 0.00 90 1019.9
20260830103205 54 187 0.0 0.0 0.00 0.00 0.00 90 1019.9
20260830102704 54 187 0.0 1.0 0.00 0.00 0.00 89 1019.9
20260830102205 54 187 1.0 2.0 0.00 0.00 0.00 89 1019.8
20260830101705 54 187 1.0 2.0 0.00 0.00 0.00 89 1019.8
20260830101204 54 187 0.0 3.0 0.00 0.00 0.00 88 1019.7
20260830100204 55 243 1.0 2.0 0.00 0.00 0.00 88 1019.7
20260830095205 56 243 2.0 3.0 0.00 0.00 0.00 88 1019.7
20260830094705 56 245 3.0 3.0 0.00 0.00 0.00 88 1019.7
20260830093205 56 215 2.0 3.0 0.00 0.00 0.00 88 1019.8
20260830092705 56 224 2.0 3.0 0.00 0.00 0.00 88 1019.8
20260830092204 56 230 2.0 3.0 0.00 0.00 0.00 87 1019.8
20260830091705 56 237 2.0 3.0 0.00 0.00 0.00 88 1019.9
20260830091204 56 234 2.0 3.0 0.00 0.00 0.00 88 1019.9
20260830090703 56 222 2.0 3.0 0.00 0.00 0.00 88 1019.8
20260830090206 56 252 2.0 3.0 0.00 0.00 0.00 88 1019.9
20260830085705 56 258 3.0 3.0 0.00 0.00 0.00 88 1019.9
20260830085204 56 239 3.0 7.0 0.00 0.00 0.00 88 1019.9
20260830084705 56 235 2.0 5.0 0.00 0.00 0.00 88 1019.9
20260830084205 56 248 2.0 3.0 0.00 0.00 0.00 88 1019.9
20260830083204 55 237 2.0 3.0 0.00 0.00 0.00 89 1019.8
20260830082203 55 237 1.0 3.0 0.00 0.00 0.00 91 1019.8
20260830081705 55 275 1.0 2.0 0.00 0.00 0.00 91 1019.8
20260830080705 54 236 0.0 0.0 0.00 0.00 0.00 92 1019.7
20260830080205 54 236 0.0 1.0 0.00 0.00 0.00 92 1019.7
20260830074704 53 227 2.0 3.0 0.00 0.00 0.00 93 1019.6
20260830074204 53 217 1.0 2.0 0.00 0.00 0.00 93 1019.6
20260830073204 52 275 0.0 0.0 0.00 0.00 0.00 92 1019.6
20260830072704 52 275 1.0 2.0 0.00 0.00 0.00 91 1019.6
20260830072204 52 275 1.0 2.0 0.00 0.00 0.00 91 1019.6
20260830071706 52 275 1.0 2.0 0.00 0.00 0.00 91 1019.6
20260830071204 52 215 1.0 2.0 0.00 0.00 0.00 90 1019.6
20260830070704 52 215 0.0 1.0 0.00 0.00 0.00 90 1019.6
20260830070205 53 215 0.0 2.0 0.00 0.00 0.00 90 1019.6
20260830065705 53 215 1.0 2.0 0.00 0.00 0.00 89 1019.5
20260830064204 54 215 1.0 2.0 0.00 0.00 0.00 89 1019.5
20260830063704 54 215 2.0 3.0 0.00 0.00 0.00 89 1019.5
20260830063205 55 202 3.0 3.0 0.00 0.00 0.00 89 1019.5
20260830062704 55 223 3.0 3.0 0.00 0.00 0.00 88 1019.5
20260830062204 55 262 2.0 3.0 0.00 0.00 0.00 88 1019.5
20260830061705 55 260 2.0 3.0 0.00 0.00 0.00 88 1019.5
20260830061204 55 240 2.0 5.0 0.00 0.00 0.00 87 1019.4
20260830060704 56 217 3.0 6.0 0.00 0.00 0.00 87 1019.4
20260830060205 56 227 4.0 8.0 0.00 0.00 0.00 87 1019.5
20260830055205 56 251 5.0 9.0 0.00 0.00 0.00 87 1019.5
20260830054706 56 264 5.0 10.0 0.00 0.00 0.00 87 1019.5
20260830054205 56 279 5.0 8.0 0.00 0.00 0.00 87 1019.6
20260830053704 56 263 3.0 7.0 0.00 0.00 0.00 88 1019.7
20260830053205 56 252 4.0 8.0 0.00 0.00 0.00 87 1019.7
20260830052204 56 260 5.0 8.0 0.00 0.00 0.00 88 1019.7
20260830051204 56 227 4.0 9.0 0.00 0.00 0.00 88 1019.8
20260830050704 56 231 3.0 5.0 0.00 0.00 0.00 87 1019.8
20260830050204 56 227 3.0 6.0 0.00 0.00 0.00 87 1019.8
20260830045704 56 223 2.0 3.0 0.00 0.00 0.00 87 1019.9
20260830045204 56 228 3.0 5.0 0.00 0.00 0.00 87 1019.8
20260830044705 56 228 3.0 7.0 0.00 0.00 0.00 87 1019.8
20260830044204 56 221 3.0 5.0 0.00 0.00 0.00 86 1019.7
20260830043704 56 222 3.0 5.0 0.00 0.00 0.00 86 1019.7
20260830043204 57 239 4.0 6.0 0.00 0.00 0.00 86 1019.7
20260830042703 57 229 4.0 8.0 0.00 0.00 0.00 86 1019.6
20260830042204 57 226 3.0 5.0 0.00 0.00 0.00 86 1019.5
20260830041204 57 230 3.0 7.0 0.00 0.00 0.00 85 1019.5
20260830040704 57 238 3.0 5.0 0.00 0.00 0.00 85 1019.4
20260830040205 57 247 3.0 7.0 0.00 0.00 0.00 85 1019.4
20260830035703 57 237 5.0 9.0 0.00 0.00 0.00 85 1019.3
20260830035204 57 249 3.0 8.0 0.00 0.00 0.00 84 1019.3
20260830034705 58 281 5.0 12.0 0.00 0.00 0.00 84 1019.2
20260830034204 58 252 6.0 12.0 0.00 0.00 0.00 84 1019.2
20260830033704 58 280 6.0 13.0 0.00 0.00 0.00 84 1019.2
20260830031705 58 268 7.0 10.0 0.00 0.00 0.00 83 1019.0
20260830031204 58 264 7.0 12.0 0.00 0.00 0.00 83 1019.0
20260830030705 58 273 7.0 13.0 0.00 0.00 0.00 83 1018.9
20260830025705 58 248 7.0 13.0 0.00 0.00 0.00 83 1018.9
20260830025204 58 260 8.0 13.0 0.00 0.00 0.00 82 1018.9
20260830024704 58 268 8.0 13.0 0.00 0.00 0.00 82 1018.9
20260830024204 59 269 7.0 12.0 0.00 0.00 0.00 82 1018.8
20260830023704 59 268 5.0 12.0 0.00 0.00 0.00 81 1018.8
20260830023204 59 278 7.0 14.0 0.00 0.00 0.00 81 1018.8
20260830022704 59 263 7.0 12.0 0.00 0.00 0.00 80 1018.8
20260830022204 60 263 7.0 14.0 0.00 0.00 0.00 80 1018.8
20260830021706 60 265 9.0 13.0 0.00 0.00 0.00 80 1018.7
20260830021204 60 266 7.0 12.0 0.00 0.00 0.00 80 1018.7
20260830020205 60 254 7.0 13.0 0.00 0.00 0.00 80 1018.7
20260830015205 60 271 9.0 14.0 0.00 0.00 0.00 79 1018.6